Cloud_Cover
100 100 100 100 100 100 100 100 100 100 100 100 18 0 18 2 0 0 0 0 0 0 0 0 0 6 25 96 100 95 31 60 83 100 100 100 100 100 100 100 96 60 6 6 0
100 100 100 100 100 100 100 100 100 100 75 91 26 7 0 2 0 0 0 0 0 0 0 0 0 1 4 2 100 100 54 59 72 75 96 100 100 100 100 94 99 85 34 12 0
100 100 98 2 87 100 100 100 100 98 18 0 1 2 0 0 0 0 0 0 0 0 0 0 0 0 5 13 98 100 61 100 39 74 100 100 100 100 92 100 100 18 99 0 0
100 85 99 100 100 100 100 100 76 89 76 0 14 0 0 0 0 0 0 0 0 0 0 0 0 0 5 24 100 100 93 64 93 100 100 100 100 100 100 100 53 6 73 0 0
90 100 32 0 0 1 0 0 3 8 1 0 0 0 0 0 0 0 0 0 0 0 0 0 0 0 5 41 100 72 98 100 99 99 100 100 94 100 71 100 46 1 10 2 0
100 86 8 12 0 0 0 0 0 0 0 9 0 0 0 0 0 0 0 0 0 0 0 0 0 0 2 87 99 100 100 100 76 100 100 100 100 52 31 54 53 0 2 4 4
100 97 97 2 14 13 10 8 22 12 0 0 0 0 0 0 0 0 0 0 0 0 0 0 0 0 2 87 89 90 74 98 100 99 100 99 100 100 32 5 5 5 5 4 2
89 93 35 95 48 18 30 45 14 57 6 0 0 0 0 0 0 0 0 0 0 0 0 0 0 0 0 88 14 98 100 100 100 100 100 100 100 78 52 17 5 4 5 4 6
27 8 11 26 19 32 10 4 99 30 0 0 0 0 0 0 0 0 0 0 0 0 0 0 0 2 0 2 48 99 100 83 100 100 100 100 100 100 90 7 4 4 11 31 11
71 47 31 0 4 8 0 11 7 14 0 0 0 0 0 0 0 0 0 0 0 0 0 0 0 0 0 0 53 97 96 53 100 100 100 100 100 100 82 17 5 11 48 51 53
100 91 36 0 23 31 21 0 0 0 0 0 5 0 0 0 0 0 0 0 0 0 0 0 0 0 0 4 99 13 100 25 100 100 100 100 100 100 100 100 74 82 58 96 87
100 26 54 16 0 0 0 0 0 0 1 2 84 22 0 0 0 0 0 0 0 0 0 0 0 0 0 59 70 5 100 64 100 100 100 100 100 100 99 100 100 96 78 98 100
100 87 60 93 3 30 0 0 0 0 3 4 79 95 12 0 0 0 0 0 0 0 0 0 0 0 0 7 26 5 100 85 100 100 100 100 100 100 95 100 99 98 88 75 95
100 99 86 64 43 0 0 0 0 0 77 24 87 30 72 4 0 0 0 0 0 0 0 0 0 0 0 4 18 79 31 100 100 100 100 100 100 100 96 100 100 100 78 100 86
100 98 100 96 0 0 0 0 0 3 99 16 100 97 52 16 11 0 0 0 0 0 0 0 0 0 0 0 2 100 84 100 100 92 100 100 100 100 86 100 100 93 100 98 32
100 100 96 10 0 0 0 0 2 38 47 68 64 90 90 78 10 1 0 0 0 0 0 0 0 0 0 0 46 95 3 100 100 100 100 98 100 100 92 100 100 85 100 80 42
100 100 44 0 0 0 0 0 79 90 5 31 66 37 61 50 55 7 0 0 0 0 0 0 0 0 0 0 85 7 69 98 80 100 99 100 100 100 56 98 73 100 100 48 98
78 43 1 0 0 0 0 0 77 5 20 87 12 5 54 99 99 4 4 0 0 3 80 2 0 0 0 3 12 1 85 83 39 85 100 99 100 100 55 60 74 94 100 97 86
40 0 0 0 0 0 0 79 4 0 0 4 42 19 100 5 99 100 5 10 14 5 51 78 9 2 0 0 5 5 85 59 100 47 100 76 88 7 96 94 52 100 98 100 99
0 0 0 0 0 0 2 2 0 0 0 0 21 6 92 92 14 90 98 89 100 8 59 100 96 47 0 0 0 8 21 84 97 5 83 72 100 100 100 100 99 100 67 65 89
2 5 0 0 0 0 5 1 0 0 0 4 8 78 54 100 97 100 84 86 74 53 5 100 52 100 9 0 0 0 0 21 100 71 100 60 80 100 100 100 99 100 96 91 98
0 87 0 0 1 1 4 0 0 0 0 4 5 82 87 29 20 100 100 100 50 74 100 6 100 50 51 3 0 0 0 7 29 17 72 100 9 100 100 100 100 100 95 97 100
4 2 0 0 48 14 0 0 0 0 0 2 37 5 32 100 51 62 77 97 7 0 48 90 6 86 100 56 4 0 1 0 4 37 98 74 95 26 92 54 67 100 100 97 96
0 11 1 0 0 1 0 1 0 0 0 0 4 2 59 95 18 73 77 1 2 65 3 5 82 100 100 90 52 0 2 1 5 42 36 78 90 99 66 9 45 100 100 100 98
0 5 1 64 5 0 0 0 0 0 0 0 8 5 53 70 98 85 97 100 100 8 1 5 26 100 21 93 60 88 5 4 5 13 95 99 100 63 0 4 73 100 100 100 100
5 2 0 0 0 0 0 0 0 0 0 0 5 5 5 100 77 100 37 98 82 64 96 100 100 41 100 98 80 100 46 5 5 5 97 100 14 96 100 1 30 100 100 100 100
0 0 0 1 0 0 3 0 0 0 0 0 0 2 81 16 4 35 100 100 96 22 57 26 84 96 100 100 92 89 93 100 100 97 76 100 14 68 100 100 92 100 100 100 100